| time (UTC) | temp F | wind direction | speed MPH | gust MPH | rain 1hr in | rain 24hr in | rain mn in | humidity % | barometer mb |
| 20260505101728 | 55 | 167 | 0.0 | 0.0 | 0.00 | 0.95 | 0.95 | 99 | 1004.5 |
| 20260505101224 | 55 | 173 | 0.0 | 0.0 | 0.00 | 0.95 | 0.95 | 99 | 1004.5 |
| 20260505100720 | 55 | 200 | 0.0 | 0.0 | 0.00 | 0.95 | 0.95 | 99 | 1004.2 |
| 20260505100218 | 55 | 169 | 0.0 | 0.0 | 0.00 | 0.95 | 0.95 | 99 | 1004.4 |
| 20260505095713 | 55 | 223 | 0.0 | 0.0 | 0.00 | 0.95 | 0.95 | 99 | 1004.2 |
| 20260505095211 | 55 | 183 | 0.0 | 0.0 | 0.00 | 0.95 | 0.95 | 99 | 1004.2 |
| 20260505094706 | 55 | 172 | 0.0 | 0.0 | 0.00 | 0.95 | 0.95 | 99 | 1003.6 |
| 20260505094203 | 55 | 165 | 0.0 | 0.0 | 0.00 | 0.95 | 0.95 | 99 | 1003.6 |
| 20260505093659 | 55 | 177 | 0.0 | 0.0 | 0.00 | 0.95 | 0.95 | 99 | 1003.9 |
| 20260505093157 | 55 | 150 | 0.0 | 0.0 | 0.00 | 0.95 | 0.95 | 99 | 1004.1 |
| 20260505092653 | 55 | 178 | 0.0 | 0.0 | 0.00 | 0.95 | 0.95 | 99 | 1003.7 |
| 20260505092152 | 55 | 224 | 0.0 | 0.0 | 0.00 | 0.95 | 0.95 | 99 | 1003.8 |
| 20260505091649 | 55 | 230 | 0.0 | 0.0 | 0.00 | 0.95 | 0.95 | 99 | 1003.9 |
| 20260505091147 | 55 | 210 | 0.0 | 0.0 | 0.00 | 0.95 | 0.95 | 99 | 1003.8 |
| 20260505090644 | 55 | 160 | 0.0 | 0.0 | 0.07 | 0.95 | 0.95 | 99 | 1003.3 |
| 20260505090143 | 55 | 119 | 0.0 | 0.0 | 0.12 | 0.95 | 0.95 | 99 | 1002.5 |
| 20260505085639 | 55 | 207 | 0.0 | 0.0 | 0.05 | 0.94 | 0.94 | 99 | 1003.2 |
| 20260505085138 | 55 | 161 | 0.0 | 1.0 | 0.14 | 0.93 | 0.93 | 99 | 1003.5 |
| 20260505084635 | 55 | 164 | 0.0 | 0.0 | 0.19 | 0.93 | 0.93 | 99 | 1003.0 |
| 20260505084133 | 55 | 165 | 0.0 | 0.0 | 0.17 | 0.91 | 0.91 | 99 | 1003.4 |
| 20260505083630 | 55 | 178 | 0.0 | 0.0 | 0.19 | 0.90 | 0.90 | 99 | 1003.6 |
| 20260505083127 | 55 | 145 | 0.0 | 0.0 | 0.24 | 0.88 | 0.88 | 99 | 1003.8 |
| 20260505082623 | 55 | 154 | 0.0 | 0.0 | 0.35 | 0.87 | 0.87 | 99 | 1004.1 |
| 20260505082120 | 55 | 151 | 0.0 | 0.0 | 0.28 | 0.85 | 0.85 | 99 | 1004.0 |
| 20260505081616 | 55 | 151 | 0.0 | 0.0 | 0.31 | 0.82 | 0.82 | 99 | 1003.9 |
| 20260505081114 | 55 | 144 | 0.0 | 0.0 | 0.31 | 0.80 | 0.80 | 99 | 1004.4 |
| 20260505080610 | 55 | 145 | 0.0 | 0.0 | 0.24 | 0.77 | 0.77 | 99 | 1004.7 |
| 20260505080106 | 55 | 144 | 0.0 | 0.0 | 0.19 | 0.75 | 0.75 | 99 | 1005.2 |
| 20260505075602 | 55 | 156 | 0.0 | 0.0 | 0.19 | 0.73 | 0.73 | 99 | 1005.6 |
| 20260505075059 | 55 | 158 | 0.0 | 0.0 | 0.28 | 0.72 | 0.72 | 99 | 1005.8 |
| 20260505074556 | 55 | 162 | 0.0 | 0.0 | 0.38 | 0.71 | 0.71 | 99 | 1005.8 |
| 20260505074053 | 55 | 161 | 0.0 | 0.0 | 0.31 | 0.68 | 0.68 | 99 | 1005.8 |
| 20260505073550 | 55 | 147 | 0.0 | 0.0 | 0.12 | 0.65 | 0.65 | 99 | 1005.6 |
| 20260505073049 | 55 | 141 | 0.0 | 0.0 | 0.05 | 0.63 | 0.63 | 99 | 1005.6 |
| 20260505072549 | 55 | 165 | 0.0 | 0.0 | 0.12 | 0.63 | 0.63 | 99 | 1005.8 |
| 20260505072046 | 55 | 134 | 0.0 | 0.0 | 0.12 | 0.62 | 0.62 | 99 | 1005.2 |
| 20260505071541 | 55 | 104 | 0.0 | 0.0 | 0.24 | 0.61 | 0.61 | 99 | 1005.2 |
| 20260505071040 | 55 | 132 | 0.0 | 0.0 | 0.78 | 0.60 | 0.60 | 99 | 1005.6 |
| 20260505070537 | 55 | 134 | 0.0 | 0.0 | 0.78 | 0.58 | 0.58 | 99 | 1005.4 |
| 20260505070033 | 56 | 161 | 0.0 | 0.0 | 0.24 | 0.47 | 0.47 | 99 | 1005.9 |
| 20260505065529 | 55 | 136 | 0.0 | 0.0 | 0.26 | 0.45 | 0.45 | 99 | 1005.0 |
| 20260505065026 | 55 | 133 | 0.0 | 0.0 | 0.31 | 0.43 | 0.43 | 98 | 1004.5 |
| 20260505064523 | 55 | 138 | 0.0 | 0.0 | 0.28 | 0.41 | 0.41 | 98 | 1004.4 |
| 20260505064021 | 55 | 140 | 0.0 | 0.0 | 0.35 | 0.39 | 0.39 | 98 | 1004.6 |
| 20260505063518 | 56 | 128 | 0.0 | 0.0 | 0.24 | 0.36 | 0.36 | 98 | 1004.4 |
| 20260505063014 | 55 | 138 | 0.0 | 0.0 | 0.17 | 0.33 | 0.33 | 98 | 1004.6 |
| 20260505062511 | 55 | 137 | 0.0 | 0.0 | 0.26 | 0.32 | 0.32 | 98 | 1004.4 |
| 20260505062008 | 56 | 99 | 0.0 | 0.0 | 0.19 | 0.30 | 0.30 | 98 | 1004.0 |
| 20260505061506 | 56 | 141 | 0.0 | 0.0 | 0.24 | 0.28 | 0.28 | 98 | 1004.6 |
| 20260505061003 | 56 | 103 | 0.0 | 0.0 | 0.24 | 0.27 | 0.27 | 97 | 1004.2 |
| 20260505060500 | 56 | 136 | 0.0 | 0.0 | 0.24 | 0.25 | 0.25 | 97 | 1004.6 |
| 20260505055956 | 57 | 117 | 0.0 | 0.0 | 0.31 | 0.23 | 0.23 | 97 | 1005.0 |
| 20260505055452 | 58 | 117 | 0.0 | 0.0 | 0.31 | 0.21 | 0.21 | 97 | 1005.4 |
| 20260505054949 | 58 | 204 | 0.0 | 0.0 | 0.19 | 0.18 | 0.18 | 97 | 1005.4 |
| 20260505054447 | 58 | 253 | 5.0 | 5.0 | 0.24 | 0.16 | 0.16 | 97 | 1005.1 |
| 20260505053945 | 58 | 258 | 3.0 | 3.0 | 0.24 | 0.15 | 0.15 | 97 | 1004.7 |
| 20260505053441 | 58 | 190 | 0.0 | 0.0 | 0.07 | 0.12 | 0.12 | 96 | 1004.2 |
| 20260505052938 | 58 | 223 | 2.0 | 2.0 | 0.05 | 0.11 | 0.11 | 96 | 1003.8 |
| 20260505052435 | 58 | 205 | 0.0 | 0.0 | 0.05 | 0.11 | 0.11 | 95 | 1003.6 |
| 20260505051932 | 59 | 181 | 0.0 | 0.0 | 0.19 | 0.10 | 0.10 | 94 | 1003.5 |
| 20260505051429 | 59 | 243 | 3.0 | 3.0 | 0.54 | 0.10 | 0.10 | 93 | 1003.1 |
| 20260505050927 | 60 | 190 | 2.0 | 2.0 | 0.54 | 0.09 | 0.09 | 89 | 1003.2 |
| 20260505050425 | 62 | 213 | 3.0 | 3.0 | 0.07 | 0.01 | 0.01 | 84 | 1002.7 |
| 20260505041353 | 67 | 233 | 3.0 | 3.0 | 0.00 | 0.00 | 0.00 | 56 | 1001.6 |
| 20260505040850 | 67 | 246 | 3.0 | 5.0 | 0.00 | 0.00 | 0.00 | 58 | 1001.6 |
| 20260505040348 | 67 | 232 | 3.0 | 3.0 | 0.00 | 0.00 | 0.00 | 57 | 1001.4 |
| 20260505035844 | 67 | 231 | 2.0 | 3.0 | 0.00 | 0.03 | 0.03 | 57 | 1001.2 |
| 20260505035340 | 68 | 234 | 2.0 | 3.0 | 0.00 | 0.03 | 0.03 | 58 | 1001.3 |
| 20260505034838 | 67 | 213 | 2.0 | 2.0 | 0.00 | 0.03 | 0.03 | 56 | 1001.4 |
| 20260505034334 | 67 | 244 | 3.0 | 5.0 | 0.00 | 0.03 | 0.03 | 58 | 1001.5 |
| 20260505033831 | 67 | 197 | 1.0 | 2.0 | 0.00 | 0.03 | 0.03 | 58 | 1001.7 |
| 20260505033328 | 67 | 220 | 2.0 | 2.0 | 0.00 | 0.03 | 0.03 | 59 | 1001.3 |
| 20260505032826 | 67 | 264 | 2.0 | 2.0 | 0.00 | 0.03 | 0.03 | 58 | 1001.4 |
| 20260505032322 | 67 | 243 | 2.0 | 2.0 | 0.00 | 0.03 | 0.03 | 57 | 1001.6 |
| 20260505031820 | 67 | 273 | 3.0 | 3.0 | 0.00 | 0.03 | 0.03 | 58 | 1001.7 |
| 20260505031316 | 67 | 244 | 3.0 | 5.0 | 0.00 | 0.03 | 0.03 | 58 | 1001.6 |
| 20260505030813 | 68 | 211 | 3.0 | 3.0 | 0.00 | 0.03 | 0.03 | 59 | 1001.7 |
| 20260505030310 | 68 | 229 | 2.0 | 2.0 | 0.00 | 0.03 | 0.03 | 58 | 1001.8 |
| 20260505025804 | 68 | 213 | 2.0 | 2.0 | 0.00 | 0.03 | 0.03 | 59 | 1001.8 |
| 20260505025304 | 68 | 251 | 3.0 | 5.0 | 0.00 | 0.03 | 0.03 | 59 | 1001.8 |
| 20260505024801 | 68 | 211 | 2.0 | 2.0 | 0.00 | 0.03 | 0.03 | 57 | 1001.9 |
| 20260505024258 | 68 | 236 | 3.0 | 3.0 | 0.00 | 0.03 | 0.03 | 58 | 1001.8 |
| 20260505023755 | 68 | 193 | 2.0 | 2.0 | 0.00 | 0.03 | 0.03 | 58 | 1001.9 |
| 20260505023252 | 68 | 191 | 1.0 | 1.0 | 0.00 | 0.03 | 0.03 | 58 | 1001.9 |
| 20260505022749 | 68 | 233 | 2.0 | 2.0 | 0.00 | 0.03 | 0.03 | 57 | 1001.9 |
| 20260505022246 | 68 | 204 | 1.0 | 2.0 | 0.00 | 0.03 | 0.03 | 58 | 1001.8 |
| 20260505021743 | 69 | 232 | 1.0 | 2.0 | 0.00 | 0.03 | 0.03 | 58 | 1002.2 |
| 20260505021240 | 68 | 239 | 2.0 | 3.0 | 0.00 | 0.03 | 0.03 | 58 | 1002.0 |
| 20260505020736 | 68 | 213 | 1.0 | 2.0 | 0.00 | 0.03 | 0.03 | 58 | 1001.8 |
| 20260505020231 | 69 | 244 | 3.0 | 3.0 | 0.00 | 0.03 | 0.03 | 58 | 1001.7 |
| 20260505015729 | 69 | 189 | 2.0 | 2.0 | 0.00 | 0.03 | 0.03 | 59 | 1001.7 |
| 20260505015225 | 69 | 228 | 3.0 | 3.0 | 0.00 | 0.03 | 0.03 | 58 | 1001.7 |
| 20260505014722 | 69 | 200 | 2.0 | 2.0 | 0.00 | 0.03 | 0.03 | 58 | 1001.7 |
| 20260505014220 | 69 | 185 | 1.0 | 2.0 | 0.00 | 0.03 | 0.03 | 58 | 1001.4 |
| 20260505013716 | 69 | 243 | 3.0 | 3.0 | 0.00 | 0.03 | 0.03 | 59 | 1001.6 |
| 20260505013214 | 69 | 273 | 3.0 | 3.0 | 0.00 | 0.03 | 0.03 | 59 | 1001.5 |
| 20260505012712 | 68 | 207 | 1.0 | 2.0 | 0.00 | 0.03 | 0.03 | 59 | 1001.5 |
| 20260505012209 | 68 | 256 | 3.0 | 3.0 | 0.00 | 0.03 | 0.03 | 60 | 1001.0 |
| 20260505011704 | 69 | 218 | 2.0 | 2.0 | 0.00 | 0.03 | 0.03 | 59 | 1001.1 |
| 20260505011202 | 69 | 192 | 0.0 | 0.0 | 0.00 | 0.03 | 0.03 | 59 | 1001.0 |
| 20260505010657 | 69 | 241 | 3.0 | 3.0 | 0.00 | 0.03 | 0.03 | 58 | 1000.7 |
| 20260505010154 | 69 | 214 | 3.0 | 3.0 | 0.00 | 0.03 | 0.03 | 57 | 1000.9 |
| 20260505005650 | 69 | 207 | 1.0 | 1.0 | 0.00 | 0.03 | 0.03 | 59 | 1000.8 |
| 20260505005147 | 69 | 247 | 2.0 | 2.0 | 0.00 | 0.03 | 0.03 | 58 | 1000.6 |
| 20260505004644 | 70 | 234 | 2.0 | 2.0 | 0.00 | 0.03 | 0.03 | 56 | 1000.5 |
| 20260505004141 | 70 | 230 | 3.0 | 5.0 | 0.00 | 0.03 | 0.03 | 56 | 1000.6 |
| 20260505003638 | 70 | 236 | 2.0 | 2.0 | 0.00 | 0.03 | 0.03 | 56 | 1000.6 |
| 20260505003136 | 70 | 245 | 3.0 | 3.0 | 0.00 | 0.03 | 0.03 | 57 | 1000.6 |
| 20260505002631 | 70 | 190 | 2.0 | 2.0 | 0.00 | 0.03 | 0.03 | 57 | 1000.8 |
| 20260505002130 | 70 | 182 | 2.0 | 2.0 | 0.00 | 0.03 | 0.03 | 57 | 1000.5 |
| 20260505001626 | 71 | 192 | 1.0 | 1.0 | 0.00 | 0.03 | 0.03 | 56 | 1000.6 |
| 20260505001124 | 71 | 207 | 2.0 | 2.0 | 0.00 | 0.03 | 0.03 | 56 | 1000.6 |
| 20260505000621 | 71 | 211 | 4.0 | 5.0 | 0.00 | 0.03 | 0.03 | 56 | 1000.6 |
| 20260505000119 | 71 | 264 | 3.0 | 3.0 | 0.00 | 0.03 | 0.03 | 53 | 1000.6 |
| 20260504235615 | 71 | 232 | 3.0 | 3.0 | 0.00 | 0.03 | 0.03 | 54 | 1000.6 |
| 20260504235112 | 71 | 211 | 2.0 | 3.0 | 0.00 | 0.03 | 0.03 | 55 | 1000.7 |
| 20260504234609 | 72 | 245 | 3.0 | 5.0 | 0.00 | 0.03 | 0.03 | 55 | 1001.0 |
| 20260504234106 | 72 | 220 | 3.0 | 3.0 | 0.00 | 0.03 | 0.03 | 53 | 1001.0 |
| 20260504233601 | 72 | 201 | 3.0 | 3.0 | 0.00 | 0.03 | 0.03 | 54 | 1001.1 |
| 20260504233058 | 73 | 218 | 3.0 | 3.0 | 0.00 | 0.03 | 0.03 | 52 | 1001.2 |
| 20260504232555 | 73 | 201 | 3.0 | 3.0 | 0.00 | 0.03 | 0.03 | 51 | 1001.4 |
| 20260504232053 | 73 | 237 | 4.0 | 6.0 | 0.00 | 0.03 | 0.03 | 53 | 1001.5 |
| 20260504231549 | 73 | 248 | 5.0 | 6.0 | 0.00 | 0.03 | 0.03 | 51 | 1001.5 |
| 20260504231045 | 73 | 252 | 6.0 | 7.0 | 0.00 | 0.03 | 0.03 | 52 | 1001.6 |
| 20260504230541 | 73 | 250 | 3.0 | 3.0 | 0.00 | 0.03 | 0.03 | 51 | 1001.4 |
| 20260504230041 | 73 | 215 | 3.0 | 3.0 | 0.00 | 0.03 | 0.03 | 50 | 1001.5 |
| 20260504225537 | 73 | 249 | 4.0 | 5.0 | 0.00 | 0.03 | 0.03 | 49 | 1001.3 |
| 20260504225034 | 73 | 233 | 3.0 | 5.0 | 0.00 | 0.03 | 0.03 | 50 | 1001.4 |
| 20260504224531 | 73 | 245 | 4.0 | 5.0 | 0.00 | 0.03 | 0.03 | 49 | 1001.5 |
| 20260504224028 | 74 | 236 | 3.0 | 3.0 | 0.00 | 0.03 | 0.03 | 48 | 1001.5 |
| 20260504223525 | 74 | 243 | 5.0 | 6.0 | 0.00 | 0.03 | 0.03 | 48 | 1001.8 |
| 20260504223021 | 73 | 248 | 5.0 | 6.0 | 0.00 | 0.03 | 0.03 | 49 | 1001.9 |
| 20260504222518 | 73 | 264 | 4.0 | 5.0 | 0.00 | 0.03 | 0.03 | 52 | 1001.7 |
| 20260504222015 | 74 | 236 | 3.0 | 3.0 | 0.00 | 0.03 | 0.03 | 53 | 1002.0 |
| 20260504221512 | 74 | 268 | 3.0 | 5.0 | 0.00 | 0.03 | 0.03 | 52 | 1001.9 |
| 20260504221009 | 74 | 229 | 5.0 | 6.0 | 0.00 | 0.03 | 0.03 | 53 | 1001.7 |
| 20260504220506 | 73 | 233 | 4.0 | 6.0 | 0.00 | 0.03 | 0.03 | 55 | 1001.7 |
| 20260504220003 | 73 | 241 | 2.0 | 3.0 | 0.00 | 0.03 | 0.03 | 57 | 1001.7 |
| 20260504215459 | 73 | 191 | 2.0 | 2.0 | 0.00 | 0.03 | 0.03 | 59 | 1002.1 |
| 20260504214956 | 73 | 161 | 0.0 | 1.0 | 0.00 | 0.03 | 0.03 | 68 | 1002.1 |
| 20260504214452 | 72 | 267 | 4.0 | 5.0 | 0.00 | 0.03 | 0.03 | 66 | 1002.2 |
| 20260504213949 | 71 | 217 | 2.0 | 5.0 | 0.00 | 0.03 | 0.03 | 68 | 1002.2 |
| 20260504213445 | 71 | 189 | 0.0 | 0.0 | 0.00 | 0.03 | 0.03 | 72 | 1002.1 |
| 20260504212943 | 71 | 168 | 0.0 | 0.0 | 0.00 | 0.03 | 0.03 | 70 | 1002.1 |
| 20260504212438 | 71 | 211 | 1.0 | 1.0 | 0.00 | 0.03 | 0.03 | 70 | 1002.2 |
| 20260504211936 | 71 | 248 | 2.0 | 3.0 | 0.00 | 0.03 | 0.03 | 68 | 1002.3 |
| 20260504211432 | 72 | 239 | 2.0 | 3.0 | 0.00 | 0.03 | 0.03 | 67 | 1002.1 |
| 20260504210930 | 73 | 182 | 1.0 | 2.0 | 0.00 | 0.03 | 0.03 | 64 | 1002.4 |
| 20260504210427 | 74 | 228 | 2.0 | 2.0 | 0.00 | 0.03 | 0.03 | 63 | 1002.4 |
| 20260504205924 | 74 | 279 | 3.0 | 5.0 | 0.00 | 0.03 | 0.03 | 62 | 1002.6 |
| 20260504205421 | 74 | 218 | 1.0 | 1.0 | 0.00 | 0.03 | 0.03 | 66 | 1002.8 |
| 20260504204919 | 73 | 189 | 1.0 | 1.0 | 0.00 | 0.03 | 0.03 | 66 | 1002.7 |
| 20260504204417 | 73 | 216 | 2.0 | 3.0 | 0.00 | 0.03 | 0.03 | 68 | 1003.0 |
| 20260504203917 | 72 | 171 | 1.0 | 1.0 | 0.00 | 0.03 | 0.03 | 73 | 1002.8 |
| 20260504203414 | 70 | 190 | 0.0 | 0.0 | 0.00 | 0.03 | 0.03 | 78 | 1003.1 |
| 20260504202909 | 71 | 177 | 1.0 | 1.0 | 0.00 | 0.03 | 0.03 | 76 | 1003.2 |
| 20260504202406 | 70 | 276 | 0.0 | 1.0 | 0.00 | 0.03 | 0.03 | 83 | 1003.0 |
| 20260504201903 | 68 | 233 | 1.0 | 1.0 | 0.00 | 0.03 | 0.03 | 85 | 1003.2 |
| 20260504201400 | 65 | 195 | 0.0 | 1.0 | 0.00 | 0.03 | 0.03 | 89 | 1003.5 |
| 20260504200857 | 63 | 198 | 2.0 | 2.0 | 0.00 | 0.03 | 0.03 | 91 | 1003.4 |
| 20260504200354 | 62 | 192 | 0.0 | 0.0 | 0.00 | 0.03 | 0.03 | 92 | 1003.0 |
| 20260504195851 | 62 | 179 | 0.0 | 0.0 | 0.00 | 0.03 | 0.03 | 91 | 1003.2 |
| 20260504195346 | 62 | 181 | 0.0 | 0.0 | 0.00 | 0.03 | 0.03 | 91 | 1003.8 |
| 20260504194843 | 61 | 195 | 2.0 | 2.0 | 0.12 | 0.03 | 0.03 | 92 | 1004.0 |
| 20260504194339 | 61 | 197 | 1.0 | 1.0 | 0.12 | 0.03 | 0.03 | 91 | 1004.7 |
| 20260504193835 | 61 | 194 | 1.0 | 2.0 | 0.05 | 0.01 | 0.01 | 87 | 1004.8 |
| 20260504193333 | 62 | 257 | 4.0 | 5.0 | 0.05 | 0.01 | 0.01 | 83 | 1004.7 |
| 20260504192831 | 63 | 254 | 5.0 | 6.0 | 0.00 | 0.00 | 0.00 | 77 | 1004.6 |
| 20260504192329 | 64 | 244 | 4.0 | 5.0 | 0.00 | 0.00 | 0.00 | 74 | 1004.2 |
| 20260504191827 | 65 | 253 | 6.0 | 7.0 | 0.00 | 0.00 | 0.00 | 70 | 1003.9 |
| 20260504191324 | 64 | 214 | 1.0 | 2.0 | 0.00 | 0.00 | 0.00 | 73 | 1003.3 |
| 20260504190820 | 63 | 245 | 3.0 | 3.0 | 0.00 | 0.00 | 0.00 | 74 | 1003.3 |
| 20260504190316 | 63 | 240 | 2.0 | 2.0 | 0.00 | 0.00 | 0.00 | 75 | 1003.3 |
| 20260504185813 | 64 | 193 | 1.0 | 2.0 | 0.00 | 0.00 | 0.00 | 74 | 1003.4 |
| 20260504185310 | 63 | 242 | 2.0 | 2.0 | 0.00 | 0.00 | 0.00 | 72 | 1003.4 |
| 20260504184806 | 63 | 237 | 3.0 | 3.0 | 0.00 | 0.00 | 0.00 | 72 | 1003.5 |
| 20260504184302 | 63 | 220 | 4.0 | 6.0 | 0.00 | 0.00 | 0.00 | 72 | 1004.0 |
| 20260504183757 | 63 | 214 | 2.0 | 2.0 | 0.00 | 0.00 | 0.00 | 75 | 1003.5 |
| 20260504183254 | 63 | 233 | 5.0 | 5.0 | 0.00 | 0.00 | 0.00 | 75 | 1003.9 |
| 20260504182753 | 64 | 250 | 10.0 | 11.0 | 0.00 | 0.00 | 0.00 | 75 | 1004.0 |
| 20260504182250 | 65 | 231 | 4.0 | 6.0 | 0.00 | 0.00 | 0.00 | 72 | 1003.9 |
| 20260504181747 | 66 | 256 | 6.0 | 7.0 | 0.00 | 0.00 | 0.00 | 69 | 1004.5 |
| 20260504181244 | 66 | 263 | 5.0 | 6.0 | 0.00 | 0.00 | 0.00 | 68 | 1004.4 |
| 20260504180743 | 66 | 266 | 6.0 | 8.0 | 0.00 | 0.00 | 0.00 | 67 | 1004.5 |
| 20260504180242 | 66 | 250 | 6.0 | 8.0 | 0.00 | 0.00 | 0.00 | 68 | 1004.5 |
| 20260504175739 | 66 | 250 | 4.0 | 6.0 | 0.00 | 0.00 | 0.00 | 70 | 1004.4 |
| 20260504175235 | 66 | 249 | 5.0 | 6.0 | 0.00 | 0.00 | 0.00 | 67 | 1004.4 |
| 20260504174733 | 66 | 233 | 7.0 | 9.0 | 0.00 | 0.00 | 0.00 | 67 | 1004.2 |
| 20260504174231 | 67 | 260 | 6.0 | 8.0 | 0.00 | 0.00 | 0.00 | 67 | 1004.0 |
| 20260504173727 | 68 | 249 | 7.0 | 8.0 | 0.00 | 0.00 | 0.00 | 66 | 1004.1 |
| 20260504173224 | 68 | 243 | 4.0 | 6.0 | 0.00 | 0.00 | 0.00 | 65 | 1003.9 |
| 20260504172721 | 67 | 251 | 5.0 | 6.0 | 0.00 | 0.00 | 0.00 | 69 | 1004.0 |
| 20260504172217 | 67 | 174 | 1.0 | 2.0 | 0.00 | 0.00 | 0.00 | 69 | 1003.7 |
| 20260504171714 | 67 | 243 | 1.0 | 2.0 | 0.00 | 0.00 | 0.00 | 69 | 1004.1 |
| 20260504171211 | 67 | 189 | 3.0 | 5.0 | 0.00 | 0.00 | 0.00 | 70 | 1003.9 |
| 20260504170708 | 67 | 244 | 3.0 | 3.0 | 0.00 | 0.00 | 0.00 | 68 | 1003.9 |
| 20260504170206 | 67 | 200 | 2.0 | 3.0 | 0.00 | 0.00 | 0.00 | 68 | 1003.3 |
| 20260504160124 | 69 | 185 | 4.0 | 5.0 | 0.00 | 0.00 | 0.00 | 66 | 1004.8 |
| 20260504151051 | 67 | 232 | 4.0 | 5.0 | 0.00 | 0.00 | 0.00 | 65 | 1005.1 |
| 20260504150548 | 67 | 241 | 5.0 | 6.0 | 0.00 | 0.00 | 0.00 | 66 | 1005.0 |
| 20260504141014 | 63 | 247 | 0.0 | 0.0 | 0.00 | 0.00 | 0.00 | 74 | 1005.3 |
| 20260504140511 | 63 | 242 | 2.0 | 2.0 | 0.00 | 0.00 | 0.00 | 76 | 1005.4 |
| 20260504130435 | 57 | 168 | 0.0 | 1.0 | 0.00 | 0.00 | 0.00 | 83 | 1005.3 |
| 20260504110322 | 48 | 155 | 0.0 | 0.0 | 0.00 | 0.00 | 0.00 | 91 | 1005.2 |